Lid_Strength_Index
-0 0 1 0 0 0 0 1 3 6 5 4 4 3 2 1 1 1 1 1 1 1 1 1 1 1 0 0 0 0 0 -0 -0 0 0 0 1 -0
0 0 0 0 0 0 0 1 1 2 5 4 4 3 2 2 1 1 1 1 1 1 1 2 1 1 1 1 1 1 0 0 0 1 1 1 1 -0
0 0 1 -0 0 0 0 0 1 1 4 5 5 4 3 3 2 2 2 2 2 2 2 2 2 2 2 2 1 1 0 0 0 0 0 -1 -0 1
1 1 1 0 0 0 0 1 1 1 2 5 5 5 5 3 3 2 2 1 2 2 3 2 2 3 3 3 3 3 2 1 0 -0 -0 0 0 1
0 1 1 0 1 0 1 1 1 1 2 5 5 5 5 4 4 3 2 1 1 2 3 3 3 3 4 4 4 3 3 3 2 2 1 1 1 1
0 0 0 1 1 1 1 1 1 1 2 4 5 5 5 5 4 4 4 2 2 2 1 1 2 3 3 2 3 3 4 4 4 4 3 3 3 3
0 -0 -0 0 2 2 0 1 1 2 2 3 4 5 6 6 5 4 4 4 2 2 2 2 2 1 2 2 2 3 3 4 4 4 4 4 4 4
0 -0 -0 1 0 1 3 3 2 1 2 2 4 6 5 5 4 5 5 5 4 -0 1 2 1 2 2 2 2 3 4 4 4 4 4 5 5 5
-0 -0 0 0 -0 -0 1 2 2 3 2 1 2 3 4 3 3 5 4 2 2 1 0 2 0 0 1 2 3 3 4 4 4 4 5 5 5 5
-0 -0 -0 -0 0 0 0 0 0 0 -0 0 0 1 0 1 2 2 2 1 0 -0 -0 2 0 1 0 1 3 4 4 4 4 5 5 5 6 6
0 -0 -0 -0 3 2 0 1 1 1 3 3 3 2 2 3 2 3 3 3 3 2 -0 1 1 0 0 2 3 3 4 5 5 5 5 5 6 6
-0 -0 2 2 4 4 0 0 1 1 -0 0 -0 1 1 1 2 1 2 3 3 3 0 2 1 2 3 1 2 3 4 5 5 5 5 5 6 5
1 1 0 5 6 7 7 0 1 0 0 0 1 0 0 -0 0 0 -1 1 2 2 -1 0 1 1 2 2 1 2 2 3 4 5 6 6 6 6
0 0 5 8 9 9 7 6 6 4 0 1 1 1 1 1 0 -0 -1 -1 -2 -0 -2 -1 1 1 2 2 2 0 0 1 2 2 3 4 6 6
0 4 8 10 10 9 9 8 8 4 2 1 1 1 0 -0 -1 -0 -1 -1 -2 -2 -1 -2 -0 -0 1 2 2 2 2 1 0 1 2 3 3 3
3 1 2 4 5 4 6 8 5 4 3 2 3 1 1 2 2 1 1 1 2 3 -1 -2 -2 -1 1 1 1 2 1 2 0 1 1 0 -0 1
2 0 2 2 3 5 4 3 3 3 4 3 4 3 2 2 3 2 2 3 3 3 4 1 -2 -2 -0 0 2 1 1 1 0 0 0 1 0 -0
4 3 3 4 4 3 3 3 2 2 2 3 2 2 2 2 2 1 2 2 3 3 3 3 2 2 2 0 -0 2 2 2 0 -0 0 1 1 -0
2 2 3 3 3 3 3 3 3 2 2 1 2 3 3 3 3 3 3 3 2 3 3 3 3 3 5 6 2 3 3 1 1 1 1 1 1 1
1 2 2 2 2 2 2 2 3 3 3 4 4 3 4 4 4 4 3 5 3 2 2 2 3 3 3 4 3 2 5 2 2 1 1 0 0 0
1 1 1 2 2 2 3 3 4 4 4 4 5 5 5 5 5 5 4 7 6 4 4 3 3 3 2 2 3 2 1 5 2 1 0 1 2 2
1 1 1 1 1 2 3 4 4 5 4 5 5 5 4 5 6 6 5 5 5 5 4 4 2 1 2 4 4 2 2 1 4 4 4 3 1 3
1 -0 0 0 0 0 0 1 2 2 2 3 4 4 3 4 3 3 4 4 5 5 4 5 4 3 3 2 3 3 3 2 2 3 2 4 4 5